FW6629 Weather Reports


Display with metric or nautical units.
time (UTC)temp
F
wind
direction
speed
MPH
gust
MPH
rain 1hr
in
rain 24hr
in
rain mn
in
humidity
%
barometer
mb
20260502234547 64 297 6.0 11.0 0.00 0.00 0.00 34 1014.6
20260502234024 64 345 3.0 11.0 0.00 0.00 0.00 33 1014.5
20260502233523 64 346 3.0 10.0 0.00 0.00 0.00 33 1014.4
20260502233045 64 270 3.0 10.0 0.00 0.00 0.00 33 1014.4
20260502232524 65 6 5.0 12.0 0.00 0.00 0.00 33 1014.3
20260502232021 65 295 5.0 12.0 0.00 0.00 0.00 33 1014.3
20260502231540 65 4 6.0 12.0 0.00 0.00 0.00 33 1014.4
20260502231021 65 350 3.0 10.0 0.00 0.00 0.00 33 1014.4
20260502230522 65 358 4.0 11.0 0.00 0.00 0.00 33 1014.4
20260502230040 65 348 4.0 12.0 0.00 0.00 0.00 32 1014.4
20260502225523 65 328 5.0 15.0 0.00 0.00 0.00 31 1014.5
20260502225025 66 275 7.0 15.0 0.00 0.00 0.00 31 1014.5
20260502224537 67 341 6.0 15.0 0.00 0.00 0.00 30 1014.5
20260502224020 67 356 5.0 15.0 0.00 0.00 0.00 30 1014.5
20260502223524 68 3 7.0 16.0 0.00 0.00 0.00 29 1014.5
20260502223037 68 350 7.0 16.0 0.00 0.00 0.00 30 1014.4
20260502222521 68 33 3.0 10.0 0.00 0.00 0.00 30 1014.3
20260502222022 68 353 5.0 10.0 0.00 0.00 0.00 30 1014.3
20260502221543 68 337 3.0 11.0 0.00 0.00 0.00 30 1014.3
20260502221023 68 53 5.0 12.0 0.00 0.00 0.00 30 1014.3
20260502220523 68 350 5.0 14.0 0.00 0.00 0.00 30 1014.3
20260502220043 68 355 7.0 18.0 0.00 0.00 0.00 29 1014.2
20260502215524 68 352 7.0 18.0 0.00 0.00 0.00 29 1014.3
20260502215022 68 339 9.0 18.0 0.00 0.00 0.00 28 1014.2
20260502214542 68 359 5.0 17.0 0.00 0.00 0.00 30 1014.1
20260502214024 67 358 4.0 17.0 0.00 0.00 0.00 32 1014.2
20260502213520 67 2 5.0 17.0 0.00 0.00 0.00 30 1014.1
20260502213042 67 345 8.0 17.0 0.00 0.00 0.00 30 1013.9
20260502212525 68 325 10.0 17.0 0.00 0.00 0.00 30 1013.9
20260502212021 68 4 3.0 14.0 0.00 0.00 0.00 32 1013.8
20260502211537 68 9 4.0 14.0 0.00 0.00 0.00 33 1013.9
20260502211024 67 344 8.0 14.0 0.00 0.00 0.00 32 1013.8
20260502210522 67 315 7.0 15.0 0.00 0.00 0.00 30 1013.9
20260502205524 69 313 7.0 15.0 0.00 0.00 0.00 29 1014.0
20260502205021 69 5 8.0 14.0 0.00 0.00 0.00 29 1013.9
20260502204546 70 37 5.0 16.0 0.00 0.00 0.00 30 1013.8
20260502204024 69 325 6.0 16.0 0.00 0.00 0.00 31 1013.8
20260502203523 69 11 6.0 15.0 0.00 0.00 0.00 30 1013.8
20260502203040 68 296 4.0 15.0 0.00 0.00 0.00 30 1013.8
20260502202524 70 336 9.0 15.0 0.00 0.00 0.00 28 1013.9
20260502202021 70 19 7.0 14.0 0.00 0.00 0.00 31 1014.0
20260502201549 69 43 3.0 12.0 0.00 0.00 0.00 32 1013.9
20260502201022 68 36 5.0 17.0 0.00 0.00 0.00 31 1014.0
20260502200521 68 354 2.0 17.0 0.00 0.00 0.00 30 1014.0
20260502200042 69 349 3.0 16.0 0.00 0.00 0.00 30 1014.0
20260502195521 69 329 7.0 16.0 0.00 0.00 0.00 32 1014.1
20260502195020 70 316 6.0 11.0 0.00 0.00 0.00 31 1014.2
20260502194536 69 360 1.0 10.0 0.00 0.00 0.00 33 1014.2
20260502194021 69 14 2.0 16.0 0.00 0.00 0.00 33 1014.3
20260502193521 70 25 3.0 16.0 0.00 0.00 0.00 32 1014.3
20260502193043 69 17 4.0 11.0 0.00 0.00 0.00 31 1014.3
20260502192523 69 3 5.0 11.0 0.00 0.00 0.00 31 1014.3
20260502192023 68 356 6.0 11.0 0.00 0.00 0.00 30 1014.3
20260502191555 69 231 5.0 11.0 0.00 0.00 0.00 31 1014.3
20260502191024 69 33 3.0 8.0 0.00 0.00 0.00 33 1014.3
20260502190521 69 42 4.0 8.0 0.00 0.00 0.00 35 1014.4
20260502190050 68 31 2.0 8.0 0.00 0.00 0.00 37 1014.5
20260502185520 67 350 2.0 10.0 0.00 0.00 0.00 34 1014.4
20260502185022 68 24 3.0 11.0 0.00 0.00 0.00 32 1014.4
20260502184551 67 2 5.0 11.0 0.00 0.00 0.00 34 1014.5
20260502184021 67 304 4.0 10.0 0.00 0.00 0.00 37 1014.5
20260502183521 67 20 2.0 8.0 0.00 0.00 0.00 35 1014.6
20260502183059 66 36 3.0 9.0 0.00 0.00 0.00 36 1014.7
20260502182522 66 2 5.0 13.0 0.00 0.00 0.00 35 1014.6
20260502182020 66 350 4.0 13.0 0.00 0.00 0.00 35 1014.6
20260502181542 67 355 3.0 11.0 0.00 0.00 0.00 37 1014.6
20260502181021 67 6 1.0 10.0 0.00 0.00 0.00 36 1014.6
20260502180528 66 265 3.0 10.0 0.00 0.00 0.00 34 1014.6
20260502164021 63 357 4.0 10.0 0.00 0.00 0.00 36 1015.7
20260502163521 63 320 3.0 12.0 0.00 0.00 0.00 38 1015.9
20260502163052 63 52 3.0 14.0 0.00 0.00 0.00 37 1015.7
20260502162524 63 25 4.0 16.0 0.00 0.00 0.00 38 1015.8
20260502162025 62 40 5.0 16.0 0.00 0.00 0.00 37 1015.8
20260502161544 62 44 6.0 16.0 0.00 0.00 0.00 38 1015.8
20260502161021 62 247 4.0 16.0 0.00 0.00 0.00 38 1015.8
20260502160527 62 360 7.0 16.0 0.00 0.00 0.00 38 1015.7
20260502152021 60 316 5.0 11.0 0.00 0.00 0.00 41 1015.5
20260502151545 60 83 5.0 14.0 0.00 0.00 0.00 41 1015.5
20260502151021 60 18 4.0 14.0 0.00 0.00 0.00 42 1015.4
20260502150554 60 50 4.0 11.0 0.00 0.00 0.00 41 1015.2
20260502130523 55 345 3.0 11.0 0.00 0.00 0.00 58 1014.7
20260502123523 54 13 2.0 6.0 0.00 0.00 0.00 60 1014.5
20260502123038 54 355 1.0 6.0 0.00 0.00 0.00 60 1014.5
20260502122523 54 4 1.0 7.0 0.00 0.00 0.00 60 1014.5
20260502122021 54 37 2.0 7.0 0.00 0.00 0.00 60 1014.4
20260502121550 54 154 2.0 11.0 0.00 0.00 0.00 60 1014.4
20260502121022 54 33 1.0 11.0 0.00 0.00 0.00 60 1014.4
20260502120520 53 49 2.0 8.0 0.00 0.00 0.00 60 1014.4
20260502115521 53 83 1.0 3.0 0.00 0.00 0.00 60 1014.3
20260502115021 53 66 1.0 6.0 0.00 0.00 0.00 60 1014.4
20260502114543 53 33 1.0 6.0 0.00 0.00 0.00 60 1014.5
20260502114021 53 13 1.0 7.0 0.00 0.00 0.00 60 1014.4
20260502113521 53 8 2.0 7.0 0.00 0.00 0.00 60 1014.3
20260502113037 53 44 2.0 7.0 0.00 0.00 0.00 60 1014.4
20260502112523 53 51 1.0 7.0 0.00 0.00 0.00 59 1014.3
20260502112020 53 21 2.0 7.0 0.00 0.00 0.00 59 1014.3
20260502111538 53 359 1.0 7.0 0.00 0.00 0.00 60 1014.4
20260502111023 53 2 1.0 7.0 0.00 0.00 0.00 60 1014.2
20260502110521 53 13 2.0 5.0 0.00 0.00 0.00 60 1014.3
20260502110053 53 352 1.0 7.0 0.00 0.00 0.00 60 1014.3
20260502105522 54 347 3.0 7.0 0.00 0.00 0.00 60 1014.0
20260502105023 54 352 1.0 4.0 0.00 0.00 0.00 60 1014.0
20260502104544 54 47 1.0 6.0 0.00 0.00 0.00 61 1013.8
20260502104021 54 360 0.0 7.0 0.00 0.00 0.00 60 1014.0
20260502103522 54 17 3.0 7.0 0.00 0.00 0.00 60 1013.9
20260502103043 54 358 2.0 8.0 0.00 0.00 0.00 61 1013.9
20260502102521 54 5 2.0 8.0 0.00 0.00 0.00 60 1013.7
20260502102021 54 4 2.0 7.0 0.00 0.00 0.00 60 1013.6
20260502101550 54 25 2.0 7.0 0.00 0.00 0.00 60 1013.7
20260502101023 54 11 1.0 4.0 0.00 0.00 0.00 60 1013.9
20260502100525 54 18 1.0 2.0 0.00 0.00 0.00 60 1013.9
20260502091023 54 354 2.0 6.0 0.00 0.00 0.00 56 1013.7
20260502090522 54 337 2.0 7.0 0.00 0.00 0.00 55 1013.6
20260502071021 56 356 3.0 10.0 0.00 0.00 0.00 49 1014.2
20260502070524 56 5 4.0 10.0 0.00 0.00 0.00 49 1014.4
20260502070037 56 20 2.0 7.0 0.00 0.00 0.00 49 1014.6
20260502065521 56 7 3.0 6.0 0.00 0.00 0.00 48 1014.6
20260502065027 56 40 2.0 7.0 0.00 0.00 0.00 49 1014.6
20260502064540 57 349 2.0 8.0 0.00 0.00 0.00 48 1014.6
20260502064023 57 25 4.0 8.0 0.00 0.00 0.00 48 1014.6
20260502063523 57 357 3.0 8.0 0.00 0.00 0.00 48 1014.6
20260502063045 57 7 3.0 8.0 0.00 0.00 0.00 47 1014.5
20260502062520 57 356 3.0 7.0 0.00 0.00 0.00 47 1014.3
20260502062024 57 352 3.0 7.0 0.00 0.00 0.00 47 1014.5
20260502061542 57 13 2.0 7.0 0.00 0.00 0.00 47 1014.4
20260502061024 57 40 2.0 11.0 0.00 0.00 0.00 47 1014.4
20260502060522 57 354 4.0 11.0 0.00 0.00 0.00 47 1014.5
20260502060041 58 355 4.0 11.0 0.00 0.00 0.00 47 1014.7
20260502055521 58 4 4.0 9.0 0.00 0.00 0.00 46 1014.7
20260502055022 58 2 3.0 10.0 0.00 0.00 0.00 47 1014.7
20260502054543 58 357 4.0 10.0 0.00 0.00 0.00 47 1014.7
20260502054023 58 356 3.0 10.0 0.00 0.00 0.00 46 1014.6
20260502053523 58 6 4.0 9.0 0.00 0.00 0.00 47 1014.5
20260502053040 58 311 3.0 9.0 0.00 0.00 0.00 47 1014.4
20260502052524 58 9 2.0 7.0 0.00 0.00 0.00 47 1014.3
20260502052025 58 17 1.0 7.0 0.00 0.00 0.00 47 1014.4
20260502051545 58 13 2.0 10.0 0.00 0.00 0.00 47 1014.2
20260502051024 58 353 3.0 10.0 0.00 0.00 0.00 47 1014.3
20260502050523 58 11 4.0 10.0 0.00 0.00 0.00 46 1014.3
20260502050039 58 12 3.0 7.0 0.00 0.00 0.00 46 1014.2
20260502045524 59 85 2.0 5.0 0.00 0.00 0.00 49 1014.2
20260502045027 59 38 1.0 8.0 0.00 0.00 0.00 49 1014.2
20260502044541 59 348 2.0 8.0 0.00 0.00 0.00 50 1014.4
20260502044026 59 21 1.0 6.0 0.00 0.00 0.00 51 1014.4
20260502043523 59 3 2.0 8.0 0.00 0.00 0.00 51 1014.4
20260502043041 59 9 2.0 8.0 0.00 0.00 0.00 52 1014.3
20260502042520 59 360 2.0 10.0 0.00 0.00 0.00 52 1014.3
20260502042023 59 9 2.0 10.0 0.00 0.00 0.00 52 1014.2
20260502041601 60 13 3.0 10.0 0.00 0.00 0.00 53 1014.3
20260502041021 60 13 1.0 5.0 0.00 0.00 0.00 55 1014.4
20260502040523 60 41 1.0 5.0 0.00 0.00 0.00 54 1014.3
20260502040044 60 342 3.0 8.0 0.00 0.00 0.00 54 1014.4
20260502035524 60 354 2.0 8.0 0.00 0.00 0.00 54 1014.5
20260502035024 60 350 2.0 10.0 0.00 0.00 0.00 55 1014.4
20260502034537 60 345 3.0 10.0 0.00 0.00 0.00 55 1014.5
20260502034024 60 15 2.0 8.0 0.00 0.00 0.00 55 1014.4
20260502033523 60 344 2.0 8.0 0.00 0.00 0.00 55 1014.4
20260502033050 60 11 3.0 10.0 0.00 0.00 0.00 55 1014.5
20260502032523 61 19 3.0 10.0 0.00 0.00 0.00 55 1014.5
20260502032023 61 33 4.0 10.0 0.00 0.00 0.00 55 1014.4
20260502031535 61 8 3.0 9.0 0.00 0.00 0.00 56 1014.4
20260502031023 61 355 1.0 6.0 0.00 0.00 0.00 56 1014.4
20260502030523 61 345 2.0 10.0 0.00 0.00 0.00 56 1014.4
20260502030043 61 349 4.0 10.0 0.00 0.00 0.00 56 1014.4
20260502025528 61 4 2.0 5.0 0.00 0.00 0.00 57 1014.4
20260502025023 61 356 2.0 9.0 0.00 0.00 0.00 57 1014.3
20260502024543 61 60 2.0 8.0 0.00 0.00 0.00 57 1014.2
20260502024024 61 25 1.0 4.0 0.00 0.00 0.00 59 1014.3
20260502023523 61 43 2.0 6.0 0.00 0.00 0.00 59 1014.2
20260502023044 61 356 1.0 6.0 0.00 0.00 0.00 60 1014.2
20260502022523 61 29 1.0 5.0 0.00 0.00 0.00 61 1014.2
20260502022026 61 341 1.0 6.0 0.00 0.00 0.00 61 1014.2
20260502021543 60 358 2.0 6.0 0.00 0.00 0.00 62 1014.2
20260502021026 60 39 1.0 5.0 0.00 0.00 0.00 63 1014.1
20260502020524 60 77 1.0 4.0 0.00 0.00 0.00 66 1014.1
20260502020043 61 6 0.0 4.0 0.00 0.00 0.00 67 1014.0
20260502015524 61 354 0.0 4.0 0.00 0.00 0.00 68 1013.9
20260502015026 61 336 0.0 2.0 0.00 0.00 0.00 67 1013.8
20260502014542 61 0 0.0 2.0 0.00 0.00 0.00 66 1013.8
20260502014023 61 21 0.0 2.0 0.00 0.00 0.00 66 1013.8
20260502013523 61 0 0.0 2.0 0.00 0.00 0.00 64 1013.8
20260502013037 61 33 0.0 4.0 0.00 0.00 0.00 64 1013.6
20260502012523 62 0 0.0 4.0 0.00 0.00 0.00 63 1013.6
20260502012022 62 345 0.0 2.0 0.00 0.00 0.00 63 1013.5
20260502011537 62 335 0.0 2.0 0.00 0.00 0.00 62 1013.4
20260502011022 62 323 0.0 2.0 0.00 0.00 0.00 62 1013.2
20260502010522 62 322 0.0 2.0 0.00 0.00 0.00 62 1013.2
20260502010044 62 27 0.0 3.0 0.00 0.00 0.00 59 1013.1
20260502005522 62 0 1.0 3.0 0.00 0.00 0.00 58 1012.8
20260502005025 63 120 1.0 3.0 0.00 0.00 0.00 57 1012.8
20260502004541 63 5 1.0 3.0 0.00 0.00 0.00 62 1012.8
20260502004025 63 0 1.0 3.0 0.00 0.00 0.00 60 1012.6
20260502003521 63 110 2.0 3.0 0.00 0.00 0.00 58 1012.7
20260502003041 64 117 1.0 2.0 0.00 0.00 0.00 56 1012.6
20260502002523 64 106 0.0 2.0 0.00 0.00 0.00 56 1012.7
20260502002023 64 106 1.0 2.0 0.00 0.00 0.00 56 1012.7
20260502001541 64 0 0.0 2.0 0.00 0.00 0.00 54 1012.7
20260502001022 65 0 0.0 2.0 0.00 0.00 0.00 53 1012.5
20260502000523 65 153 0.0 2.0 0.00 0.00 0.00 52 1012.3
20260502000048 65 326 0.0 2.0 0.00 0.00 0.00 52 1012.3
20260501235522 65 0 0.0 3.0 0.00 0.00 0.00 51 1012.3
20260501235022 65 148 1.0 3.0 0.00 0.00 0.00 52 1012.3